UAL429 KSAN-KLAX

Flight info

Callsign UAL429
Flight time 0h 22m
Altitude 10000
Route KSAN CWARD2 SLI
Aircraft B738/M-G/C

Departure

Time 2026-05-05 01:55
Airport San Diego International Airport (KSAN)

Arrival

Time 2026-05-05 02:17
Airport Los Angeles International Airport (KLAX)
Time Latitude Longitude Altitude Speed Heading
2026-05-05 01:34 32.73338 -117.20183 21 ft 0 kts 84°
2026-05-05 01:46 32.73337 -117.20187 21 ft 2 kts 84°
2026-05-05 01:46 32.73334 -117.20215 21 ft 3 kts 84°
2026-05-05 01:46 32.73332 -117.20246 21 ft 3 kts 84°
2026-05-05 01:46 32.73330 -117.20257 21 ft 1 kts 74°
2026-05-05 01:47 32.73327 -117.20267 21 ft 1 kts 54°
2026-05-05 01:47 32.73323 -117.20272 21 ft 0 kts 38°
2026-05-05 01:49 32.73326 -117.20272 21 ft 1 kts
2026-05-05 01:49 32.73340 -117.20271 21 ft 0 kts
2026-05-05 01:49 32.73351 -117.20271 21 ft 2 kts 360°
2026-05-05 01:49 32.73368 -117.20271 21 ft 2 kts 360°
2026-05-05 01:50 32.73374 -117.20271 21 ft 0 kts 360°
2026-05-05 01:50 32.73377 -117.20271 21 ft 1 kts 360°
2026-05-05 01:50 32.73381 -117.20271 21 ft 1 kts 360°
2026-05-05 01:50 32.73447 -117.20260 21 ft 15 kts 14°
2026-05-05 01:51 32.73532 -117.20180 21 ft 19 kts 90°
2026-05-05 01:51 32.73504 -117.20007 21 ft 24 kts 108°
2026-05-05 01:51 32.73443 -117.19780 22 ft 32 kts 104°
2026-05-05 01:51 32.73378 -117.19498 24 ft 37 kts 104°
2026-05-05 01:52 32.73298 -117.19170 24 ft 43 kts 105°
2026-05-05 01:52 32.73214 -117.18806 22 ft 48 kts 106°
2026-05-05 01:52 32.73116 -117.18415 21 ft 50 kts 105°
2026-05-05 01:52 32.73031 -117.18054 21 ft 31 kts 103°
2026-05-05 01:53 32.72969 -117.17821 24 ft 19 kts 111°
2026-05-05 01:53 32.72950 -117.17736 25 ft 9 kts 91°
2026-05-05 01:53 32.72951 -117.17706 26 ft 5 kts 83°
2026-05-05 01:53 32.72981 -117.17638 27 ft 14 kts 46°
2026-05-05 01:54 32.73043 -117.17670 28 ft 16 kts 291°
2026-05-05 01:54 32.73106 -117.17928 25 ft 63 kts 287°
2026-05-05 01:54 32.73299 -117.18765 24 ft 142 kts 287°
2026-05-05 01:54 32.73615 -117.20030 497 ft 168 kts 290°
2026-05-05 01:55 32.74141 -117.21323 1283 ft 185 kts 300°
2026-05-05 01:55 32.74890 -117.22616 2018 ft 197 kts 302°
2026-05-05 01:55 32.75666 -117.24015 2478 ft 215 kts 301°
2026-05-05 01:55 32.76524 -117.25591 2918 ft 234 kts 301°
2026-05-05 01:56 32.77468 -117.27307 3330 ft 258 kts 302°
2026-05-05 01:56 32.78450 -117.29091 4258 ft 261 kts 302°
2026-05-05 01:56 32.79412 -117.30863 5253 ft 260 kts 301°
2026-05-05 01:56 32.80452 -117.32622 6170 ft 263 kts 306°
2026-05-05 01:57 32.81575 -117.34328 7114 ft 263 kts 306°
2026-05-05 01:57 32.82700 -117.36068 7852 ft 270 kts 305°
2026-05-05 01:57 32.83836 -117.37837 8684 ft 272 kts 304°
2026-05-05 01:57 32.84980 -117.39608 9514 ft 274 kts 304°
2026-05-05 01:58 32.86148 -117.41417 9921 ft 283 kts 304°
2026-05-05 01:58 32.87348 -117.43277 9952 ft 278 kts 304°
2026-05-05 01:58 32.88525 -117.45109 9946 ft 288 kts 304°
2026-05-05 01:58 32.89792 -117.47099 9941 ft 314 kts 304°
2026-05-05 01:59 32.91165 -117.49245 9968 ft 337 kts 304°
2026-05-05 01:59 32.92605 -117.51475 9936 ft 336 kts 305°
2026-05-05 01:59 32.94025 -117.53657 9940 ft 335 kts 305°
2026-05-05 01:59 32.95442 -117.55849 9931 ft 335 kts 304°
2026-05-05 02:00 32.96861 -117.58067 9934 ft 335 kts 304°
2026-05-05 02:00 32.98271 -117.60284 9931 ft 335 kts 304°
2026-05-05 02:00 32.99689 -117.62501 9933 ft 336 kts 304°
2026-05-05 02:00 33.01112 -117.64708 9935 ft 336 kts 305°
2026-05-05 02:01 33.02532 -117.66907 9933 ft 335 kts 304°
2026-05-05 02:01 33.03934 -117.69087 9936 ft 335 kts 304°
2026-05-05 02:01 33.05339 -117.71292 9925 ft 333 kts 304°
2026-05-05 02:01 33.06865 -117.73421 9925 ft 336 kts 313°
2026-05-05 02:02 33.08633 -117.75239 9933 ft 338 kts 317°
2026-05-05 02:02 33.10443 -117.77032 9928 ft 337 kts 317°
2026-05-05 02:02 33.12225 -117.78857 9930 ft 336 kts 315°
2026-05-05 02:02 33.14001 -117.80693 9935 ft 338 kts 315°
2026-05-05 02:03 33.15780 -117.82515 9937 ft 340 kts 316°
2026-05-05 02:03 33.17588 -117.84344 9930 ft 338 kts 316°
2026-05-05 02:03 33.19532 -117.85972 9923 ft 343 kts 330°
2026-05-05 02:03 33.21802 -117.86855 9934 ft 348 kts 345°
2026-05-05 02:04 33.24211 -117.87386 9929 ft 350 kts 346°
2026-05-05 02:04 33.26585 -117.87959 9933 ft 348 kts 344°
2026-05-05 02:04 33.28960 -117.88577 9922 ft 349 kts 344°
2026-05-05 02:04 33.31334 -117.89184 9927 ft 348 kts 345°
2026-05-05 02:05 33.33722 -117.89771 9928 ft 348 kts 345°
2026-05-05 02:05 33.36087 -117.90340 9926 ft 348 kts 345°
2026-05-05 02:05 33.38447 -117.90918 9921 ft 346 kts 344°
2026-05-05 02:05 33.40751 -117.91651 9926 ft 333 kts 339°
2026-05-05 02:06 33.42899 -117.92496 9928 ft 313 kts 338°
2026-05-05 02:06 33.44905 -117.93260 9925 ft 296 kts 338°
2026-05-05 02:06 33.46849 -117.93969 9928 ft 287 kts 339°
2026-05-05 02:06 33.48781 -117.94668 9933 ft 291 kts 339°
2026-05-05 02:07 33.50705 -117.95377 9930 ft 289 kts 339°
2026-05-05 02:07 33.52618 -117.96091 9834 ft 290 kts 338°
2026-05-05 02:07 33.54541 -117.96797 9555 ft 286 kts 339°
2026-05-05 02:07 33.56448 -117.97474 9279 ft 280 kts 340°
2026-05-05 02:08 33.58277 -117.98132 9007 ft 274 kts 339°
2026-05-05 02:08 33.60099 -117.98807 8735 ft 273 kts 339°
2026-05-05 02:08 33.61916 -117.99478 8468 ft 272 kts 339°
2026-05-05 02:08 33.63721 -118.00131 8197 ft 271 kts 339°
2026-05-05 02:09 33.65542 -118.00787 7928 ft 269 kts 340°
2026-05-05 02:09 33.67319 -118.01440 7694 ft 267 kts 339°
2026-05-05 02:09 33.69083 -118.02093 7464 ft 267 kts 339°
2026-05-05 02:09 33.70866 -118.02750 7230 ft 268 kts 340°
2026-05-05 02:10 33.72664 -118.03403 6999 ft 265 kts 340°
2026-05-05 02:10 33.74410 -118.04034 6965 ft 264 kts 340°
2026-05-05 02:10 33.76186 -118.04678 6961 ft 266 kts 340°
2026-05-05 02:10 33.77947 -118.05324 6957 ft 260 kts 339°
2026-05-05 02:11 33.79599 -118.06060 6959 ft 243 kts 332°
2026-05-05 02:11 33.81077 -118.06892 6961 ft 230 kts 331°
2026-05-05 02:11 33.82509 -118.07719 6965 ft 229 kts 331°
2026-05-05 02:11 33.83963 -118.08549 6967 ft 232 kts 331°
2026-05-05 02:12 33.85411 -118.09380 6918 ft 232 kts 331°
2026-05-05 02:12 33.88334 -118.11050 6390 ft 231 kts 331°
2026-05-05 02:12 33.89794 -118.11906 6058 ft 232 kts 331°
2026-05-05 02:13 33.91247 -118.12764 5646 ft 236 kts 331°
2026-05-05 02:13 33.92736 -118.13642 5198 ft 241 kts 331°
2026-05-05 02:13 33.94233 -118.14574 4736 ft 245 kts 324°
2026-05-05 02:13 33.95414 -118.16007 4258 ft 245 kts 297°
2026-05-05 02:14 33.95884 -118.17963 3791 ft 246 kts 269°
2026-05-05 02:14 33.95595 -118.19960 3587 ft 236 kts 257°
2026-05-05 02:14 33.95394 -118.21856 3569 ft 217 kts 265°
2026-05-05 02:14 33.95220 -118.23538 3561 ft 200 kts 262°
2026-05-05 02:15 33.95056 -118.25232 3556 ft 203 kts 263°
2026-05-05 02:15 33.94876 -118.26936 3180 ft 201 kts 262°
2026-05-05 02:15 33.94702 -118.28629 2667 ft 211 kts 263°
2026-05-05 02:15 33.94546 -118.30386 1743 ft 216 kts 263°
2026-05-05 02:16 33.94424 -118.32142 1066 ft 207 kts 266°
2026-05-05 02:16 33.94287 -118.33714 864 ft 182 kts 260°
2026-05-05 02:16 33.94090 -118.35151 571 ft 168 kts 261°
2026-05-05 02:16 33.93938 -118.36472 457 ft 150 kts 262°
2026-05-05 02:17 33.93807 -118.37646 269 ft 135 kts 261°
2026-05-05 02:17 33.93693 -118.38711 105 ft 115 kts 262°
2026-05-05 02:17 33.93618 -118.39384 109 ft 51 kts 263°
2026-05-05 02:17 33.93609 -118.39781 114 ft 44 kts 283°
2026-05-05 02:18 33.93661 -118.40052 119 ft 16 kts 267°
2026-05-05 02:18 33.93652 -118.40191 121 ft 17 kts 264°
2026-05-05 02:18 33.93644 -118.40297 121 ft 0 kts 274°
2026-05-05 02:18 33.93645 -118.40306 121 ft 0 kts 274°
2026-05-05 02:19 33.93645 -118.40308 121 ft 0 kts 274°
2026-05-05 02:19 33.93646 -118.40316 121 ft 3 kts 281°
2026-05-05 02:20 33.93647 -118.40319 121 ft 0 kts 281°
2026-05-05 02:20 33.93648 -118.40329 121 ft 3 kts 287°
2026-05-05 02:20 33.93658 -118.40362 121 ft 0 kts 292°
2026-05-05 02:20 33.93671 -118.40385 122 ft 9 kts 309°
2026-05-05 02:21 33.93774 -118.40436 123 ft 21 kts 351°